period_start,C,m1,H,J0,J1,J2,J3,J4,J5,JA,JB,JC,JD,JJ,JK,JN,#
2014-08-20 00:04:03,1.28,6.80,1.00,28.40,32.97,35.16,9.29,49.23,996.11,2010.98,1450.31,2013.68,2071.13,499.62,477.61,20.02,0000 0000 0000 0000 000000
2014-08-20 00:09:04,1.28,6.86,1.00,28.40,32.97,35.17,9.35,49.37,996.11,2010.97,1441.60,2007.67,2064.66,500.11,478.23,20.07,0000 0000 0000 0000 000000
2014-08-20 00:14:05,1.28,6.92,1.00,28.41,32.97,35.15,9.25,49.50,996.11,2010.98,1432.93,2001.79,2058.32,499.89,477.87,20.11,0000 0000 0000 0000 000000
2014-08-20 00:19:07,1.28,6.97,1.00,28.42,32.97,35.17,9.34,49.42,996.11,2010.97,1424.31,1995.94,2052.06,499.70,477.72,20.15,0000 0000 0000 0000 000000
2014-08-20 00:24:08,1.26,7.02,1.00,28.42,32.97,35.17,9.35,49.71,996.10,2010.95,1415.73,1990.17,2046.02,499.93,477.85,20.19,0000 0000 0000 0000 000000
2014-08-20 00:29:09,1.25,7.08,1.00,28.42,32.97,35.18,9.38,49.85,996.10,2010.91,1407.34,1984.47,2039.96,500.20,478.08,20.23,0000 0000 0000 0000 000000
2014-08-20 00:34:11,1.25,7.13,1.00,28.44,32.97,35.18,9.29,50.03,996.11,2010.92,1399.02,1978.98,2033.91,499.99,477.88,20.28,0000 0000 0000 0000 000000
2014-08-20 00:39:12,1.27,7.18,1.00,28.44,32.97,35.19,9.31,50.04,996.04,2010.93,1390.69,1973.36,2027.87,500.04,477.89,20.32,0000 0000 0000 0000 000000
2014-08-20 00:44:13,1.26,7.24,1.00,28.45,32.98,35.19,9.34,50.15,995.89,2010.87,1382.42,1967.74,2021.83,500.12,478.00,20.36,0000 0000 0000 0000 000000
2014-08-20 00:49:14,1.22,7.29,1.00,28.46,32.98,35.20,9.39,50.37,995.84,2010.75,1374.28,1962.22,2015.85,500.37,478.25,20.40,0000 0000 0000 0000 000000
2014-08-20 00:54:16,1.25,7.34,1.00,28.48,32.99,35.20,9.38,50.49,995.91,2010.67,1366.16,1956.69,2009.94,500.19,478.00,20.44,0000 0000 0000 0000 000000
2014-08-20 00:59:17,1.23,7.39,1.00,28.47,33.00,35.19,9.33,50.52,995.94,2010.56,1358.20,1951.26,2004.09,500.31,478.11,20.49,0000 0000 0000 0000 000000
2014-08-20 01:04:18,1.23,7.45,1.00,28.47,33.00,35.21,9.34,50.60,995.89,2010.44,1350.39,1945.76,1998.24,500.41,478.14,20.53,0000 0000 0000 0000 000000
2014-08-20 01:09:19,1.25,7.50,1.00,28.49,33.00,35.20,9.29,50.70,995.68,2010.39,1342.65,1940.41,1992.45,499.88,477.65,20.57,0000 0000 0000 0000 000000
2014-08-20 01:14:21,1.21,7.55,1.00,28.49,33.00,35.20,9.33,50.87,995.63,2010.29,1335.13,1935.04,1986.70,499.97,477.55,20.61,0000 0000 0000 0000 000000
2014-08-20 01:19:22,1.22,7.60,1.00,28.51,33.00,35.21,9.29,51.13,995.63,2010.14,1327.52,1929.73,1981.18,499.88,477.42,20.65,0000 0000 0000 0000 000000
2014-08-20 01:24:23,1.24,7.65,1.00,28.52,33.01,35.22,9.33,51.24,995.63,2010.15,1319.88,1924.56,1975.69,499.87,477.44,20.70,0000 0000 0000 0000 000000
2014-08-20 01:29:24,1.23,7.70,1.00,28.52,33.02,35.23,9.36,51.22,995.63,2010.11,1312.19,1919.49,1970.17,500.30,477.78,20.74,0000 0000 0000 0000 000000
2014-08-20 01:34:25,1.26,7.75,1.00,28.52,33.02,35.23,9.35,51.27,995.63,2010.07,1304.71,1914.19,1964.51,500.11,477.74,20.78,0000 0000 0000 0000 000000
2014-08-20 01:39:26,1.21,7.81,1.00,28.54,33.02,35.23,9.35,51.21,995.62,2010.07,1297.50,1908.95,1958.91,500.20,477.65,20.82,0000 0000 0000 0000 000000
2014-08-20 01:44:28,1.23,7.86,1.00,28.55,33.04,35.24,9.24,51.42,995.61,2010.03,1290.26,1903.81,1953.44,499.96,477.44,20.86,0000 0000 0000 0000 000000
2014-08-20 01:49:29,1.22,7.91,1.00,28.56,33.05,35.24,9.38,51.80,995.60,2010.07,1283.21,1898.75,1948.08,500.11,477.59,20.91,0000 0000 0000 0000 000000
2014-08-20 01:54:30,1.20,7.96,1.00,28.57,33.05,35.25,9.36,51.92,995.60,2010.03,1276.25,1893.79,1942.78,499.98,477.39,20.95,0000 0000 0000 0000 000000
2014-08-20 01:59:31,1.19,8.01,1.00,28.58,33.06,35.26,9.38,51.98,995.53,2010.00,1269.36,1888.91,1937.57,500.01,477.33,20.99,0000 0000 0000 0000 000000
2014-08-20 02:04:32,1.19,8.06,1.00,28.58,33.07,35.26,9.29,51.92,995.46,2010.01,1262.59,1884.13,1932.49,500.11,477.52,21.03,0000 0000 0000 0000 000000
2014-08-20 02:09:33,1.18,8.11,1.00,28.60,33.07,35.28,9.45,52.17,995.28,2010.02,1255.91,1879.30,1927.33,500.47,477.65,21.07,0000 0000 0000 0000 000000
2014-08-20 02:14:34,1.16,8.16,1.00,28.62,33.09,35.28,9.32,52.23,995.18,2010.00,1249.35,1874.54,1922.31,500.25,477.47,21.11,0000 0000 0000 0000 000000
2014-08-20 02:19:35,1.18,8.21,1.00,28.62,33.10,35.30,9.36,52.33,995.16,2010.00,1242.88,1869.77,1917.30,500.18,477.22,21.16,0000 0000 0000 0000 000000
2014-08-20 02:24:36,1.15,8.26,1.00,28.63,33.11,35.30,9.33,52.36,995.14,2010.00,1236.59,1865.05,1912.34,499.94,477.20,21.20,0000 0000 0000 0000 000000
2014-08-20 02:29:38,1.15,8.30,1.00,28.65,33.12,35.31,9.35,52.42,995.13,2010.00,1230.50,1860.35,1907.34,499.86,476.97,21.24,0000 0000 0000 0000 000000
2014-08-20 02:34:39,1.13,8.35,1.00,28.66,33.12,35.32,9.42,52.42,995.13,2009.99,1224.55,1855.67,1902.33,500.39,477.47,21.28,0000 0000 0000 0000 000000
2014-08-20 02:39:40,1.13,8.40,1.00,28.67,33.14,35.33,9.25,52.46,995.13,2009.99,1218.73,1851.07,1897.31,499.62,476.65,21.32,0000 0000 0000 0000 000000
2014-08-20 02:44:41,1.10,8.45,1.00,28.68,33.15,35.34,9.33,52.67,995.13,2009.98,1213.14,1846.48,1892.43,499.92,476.92,21.37,0000 0000 0000 0000 000000
2014-08-20 02:49:42,1.12,8.49,1.00,28.71,33.16,35.36,9.28,52.73,995.13,2009.98,1207.61,1841.70,1887.43,499.78,476.80,21.41,0000 0000 0000 0000 000000
2014-08-20 02:54:44,1.10,8.54,1.00,28.72,33.17,35.36,9.37,52.84,995.13,2009.96,1202.26,1837.01,1882.47,500.30,477.29,21.45,0000 0000 0000 0000 000000
2014-08-20 02:59:45,1.05,8.59,1.00,28.74,33.18,35.37,9.36,52.75,995.13,2009.95,1197.16,1832.53,1877.72,500.10,477.15,21.49,0000 0000 0000 0000 000000
2014-08-20 03:04:46,1.04,8.63,1.00,28.75,33.20,35.38,9.31,52.86,995.11,2009.89,1192.11,1828.15,1873.09,499.89,476.66,21.53,0000 0000 0000 0000 000000
2014-08-20 03:09:47,1.06,8.67,1.00,28.76,33.20,35.39,9.30,52.97,995.12,2009.86,1187.08,1823.73,1868.53,500.09,477.03,21.58,0000 0000 0000 0000 000000
2014-08-20 03:14:49,1.03,8.72,1.00,28.77,33.22,35.40,9.38,53.02,995.08,2009.84,1182.10,1819.40,1864.01,500.12,476.92,21.62,0000 0000 0000 0000 000000
2014-08-20 03:19:50,0.96,8.76,1.00,28.80,33.22,35.41,9.32,53.07,994.98,2009.62,1177.23,1815.35,1859.70,500.02,476.47,21.66,0000 0000 0000 0000 000000
2014-08-20 03:24:51,0.95,8.80,1.00,28.80,33.25,35.42,9.32,53.23,994.77,2009.32,1172.29,1811.31,1855.49,500.29,476.83,21.70,0000 0000 0000 0000 000000
2014-08-20 03:29:53,1.01,8.84,1.00,28.81,33.25,35.43,9.27,53.38,994.78,2009.16,1167.42,1807.14,1851.23,499.75,476.37,21.74,0000 0000 0000 0000 000000
2014-08-20 03:34:54,0.97,8.88,1.00,28.83,33.27,35.45,9.31,53.38,994.74,2009.06,1162.76,1803.09,1846.96,500.00,476.50,21.78,0000 0000 0000 0000 000000
2014-08-20 03:39:55,0.94,8.92,1.00,28.85,33.27,35.45,9.35,53.47,994.82,2009.01,1158.27,1799.26,1842.91,500.14,476.70,21.83,0000 0000 0000 0000 000000
2014-08-20 03:44:56,0.91,8.96,1.00,28.87,33.29,35.47,9.27,53.57,994.79,2009.00,1153.92,1795.51,1838.99,499.60,476.17,21.87,0000 0000 0000 0000 000000
2014-08-20 03:49:58,0.91,9.00,1.00,28.91,33.30,35.49,9.34,53.61,994.77,2009.00,1149.70,1791.98,1835.22,500.06,476.64,21.91,0000 0000 0000 0000 000000
2014-08-20 03:54:59,0.87,9.04,1.00,28.91,33.31,35.49,9.30,53.67,994.66,2009.00,1145.60,1788.56,1831.56,499.95,476.46,21.95,0000 0000 0000 0000 000000
2014-08-20 04:00:00,0.90,9.08,1.00,28.93,33.32,35.49,9.32,53.78,994.65,2009.00,1141.47,1785.09,1827.89,499.85,476.41,21.99,0000 0000 0000 0000 000000
2014-08-20 04:05:01,0.87,9.11,1.00,28.93,33.33,35.51,9.30,53.83,994.64,2009.00,1137.41,1781.71,1824.28,500.16,476.54,22.04,0000 0000 0000 0000 000000
2014-08-20 04:10:02,0.89,9.15,1.00,28.93,33.35,35.53,9.33,53.88,994.64,2008.98,1133.27,1778.24,1820.67,499.71,476.15,22.08,0000 0000 0000 0000 000000
2014-08-20 04:15:04,0.90,9.19,1.00,28.96,33.36,35.55,9.30,53.97,994.64,2008.93,1129.07,1774.84,1816.99,499.69,476.09,22.12,0000 0000 0000 0000 000000
2014-08-20 04:20:05,0.88,9.22,1.00,28.95,33.37,35.55,9.31,53.98,994.65,2008.90,1125.01,1771.34,1813.34,499.88,476.25,22.16,0000 0000 0000 0000 000000
2014-08-20 04:25:06,0.91,9.26,1.00,28.98,33.38,35.56,9.34,53.88,994.65,2008.88,1120.86,1767.89,1809.70,500.21,476.58,22.20,0000 0000 0000 0000 000000
2014-08-20 04:30:08,0.93,9.30,1.00,29.00,33.40,35.57,9.30,54.00,994.64,2008.72,1116.28,1764.42,1806.03,499.94,476.30,22.25,0000 0000 0000 0000 000000
2014-08-20 04:35:09,1.00,9.34,1.00,29.02,33.41,35.59,9.26,54.05,994.64,2008.54,1111.33,1760.86,1802.21,499.80,476.00,22.29,0000 0000 0000 0000 000000
2014-08-20 04:40:10,1.01,9.39,1.00,29.03,33.42,35.60,9.40,54.16,994.64,2008.29,1106.25,1757.18,1798.41,500.20,476.33,22.33,0000 0000 0000 0000 000000
2014-08-20 04:45:11,1.03,9.43,1.00,29.06,33.43,35.61,9.28,54.22,994.64,2008.16,1101.13,1753.63,1794.63,499.41,475.75,22.37,0000 0000 0000 0000 000000
2014-08-20 04:50:13,1.02,9.47,1.00,29.07,33.45,35.62,9.36,54.51,994.64,2008.06,1096.17,1749.99,1790.91,500.02,476.32,22.41,0000 0000 0000 0000 000000
2014-08-20 04:55:13,1.04,9.52,1.00,29.09,33.46,35.64,9.35,54.59,994.64,2008.01,1091.05,1746.48,1787.18,499.87,476.10,22.46,0000 0000 0000 0000 000000
2014-08-20 05:00:15,1.03,9.56,1.00,29.11,33.47,35.66,9.32,54.83,994.64,2008.00,1086.11,1743.00,1783.51,499.79,475.94,22.50,0000 0000 0000 0000 000000
2014-08-20 05:05:16,1.03,9.60,1.00,29.14,33.48,35.67,9.36,54.85,994.64,2008.00,1081.32,1739.49,1779.87,500.03,476.22,22.54,0000 0000 0000 0000 000000
2014-08-20 05:10:17,1.04,9.65,1.00,29.14,33.50,35.68,9.24,54.92,994.59,2008.00,1076.34,1736.13,1776.20,499.91,475.99,22.58,0000 0000 0000 0000 000000
2014-08-20 05:15:18,1.06,9.69,1.00,29.14,33.51,35.69,9.32,55.12,994.43,2008.00,1071.35,1732.66,1772.55,500.10,476.08,22.62,0000 0000 0000 0000 000000
2014-08-20 05:20:19,1.05,9.73,1.00,29.17,33.52,35.71,9.32,55.24,994.26,2007.99,1066.32,1729.21,1768.92,499.82,475.53,22.67,0000 0000 0000 0000 000000
2014-08-20 05:25:21,1.05,9.78,1.00,29.19,33.54,35.71,9.30,55.42,994.21,2007.94,1061.33,1725.87,1765.22,499.88,475.62,22.71,0000 0000 0000 0000 000000
2014-08-20 05:30:22,1.08,9.82,1.00,29.18,33.55,35.73,9.32,55.58,994.17,2007.91,1056.20,1722.49,1761.56,499.39,475.31,22.75,0000 0000 0000 0000 000000
2014-08-20 05:35:23,1.08,9.87,1.00,29.18,33.57,35.75,9.36,55.62,994.17,2007.90,1051.10,1719.03,1757.90,500.02,475.81,22.79,0000 0000 0000 0000 000000
2014-08-20 05:40:24,1.07,9.91,1.00,29.20,33.57,35.76,9.36,55.87,994.16,2007.78,1046.04,1715.51,1754.15,499.66,475.44,22.83,0000 0000 0000 0000 000000
2014-08-20 05:45:25,1.02,9.96,1.00,29.24,33.60,35.77,9.32,55.88,994.16,2007.37,1040.96,1712.00,1750.45,500.27,475.92,22.87,0000 0000 0000 0000 000000
2014-08-20 05:50:26,1.11,10.00,1.00,29.25,33.61,35.79,9.35,56.07,994.16,2007.19,1035.88,1708.46,1746.69,500.03,475.70,22.92,0000 0000 0000 0000 000000
2014-08-20 05:55:27,1.10,10.05,1.00,29.29,33.62,35.81,9.42,56.09,994.16,2007.13,1030.92,1704.87,1742.90,499.95,475.58,22.96,0000 0000 0000 0000 000000
2014-08-20 06:00:28,1.11,10.09,1.00,29.31,33.64,35.83,9.34,56.07,994.16,2007.05,1026.01,1701.21,1739.03,500.32,475.89,23.00,0000 0000 0000 0000 000000
2014-08-20 06:05:29,1.13,10.14,1.00,29.31,33.65,35.83,9.30,56.29,994.16,2007.01,1021.13,1697.55,1735.21,499.94,475.53,23.04,0000 0000 0000 0000 000000
2014-08-20 06:10:31,1.12,10.19,1.00,29.32,33.67,35.84,9.36,56.38,994.16,2007.00,1016.23,1693.93,1731.42,499.91,475.52,23.08,0000 0000 0000 0000 000000
2014-08-20 06:15:32,1.15,10.24,1.00,29.37,33.68,35.87,9.32,56.42,994.16,2007.00,1011.26,1690.21,1727.63,499.90,475.56,23.13,0000 0000 0000 0000 000000
2014-08-20 06:20:33,1.16,10.29,1.00,29.38,33.70,35.88,9.32,56.63,994.16,2007.00,1006.28,1686.59,1723.90,500.05,475.52,23.17,0000 0000 0000 0000 000000
2014-08-20 06:25:35,1.21,10.34,1.00,29.39,33.71,35.89,9.33,56.72,994.16,2006.96,1000.88,1682.91,1720.03,499.77,475.32,23.21,0000 0000 0000 0000 000000
2014-08-20 06:30:36,1.24,10.39,1.00,29.41,33.72,35.91,9.32,56.99,994.15,2006.96,995.40,1679.29,1716.21,499.68,475.07,23.25,0000 0000 0000 0000 000000
2014-08-20 06:35:37,1.23,10.44,1.00,29.42,33.74,35.92,9.35,57.00,994.14,2006.93,989.94,1675.65,1712.42,500.23,475.65,23.29,0000 0000 0000 0000 000000
2014-08-20 06:40:38,1.22,10.49,1.00,29.41,33.75,35.94,9.39,57.18,994.15,2006.86,984.55,1671.94,1708.55,499.89,475.32,23.33,0000 0000 0000 0000 000000
2014-08-20 06:45:39,1.25,10.54,1.00,29.44,33.77,35.96,9.38,57.33,994.15,2006.75,979.23,1668.20,1704.62,500.07,475.49,23.38,0000 0000 0000 0000 000000
2014-08-20 06:50:41,1.22,10.59,1.00,29.46,33.78,35.97,9.31,57.57,994.15,2006.32,973.54,1664.52,1700.73,500.24,475.52,23.42,0000 0000 0000 0000 000000
2014-08-20 06:55:41,1.31,10.65,1.00,29.47,33.80,35.98,9.38,57.61,994.16,2006.13,967.54,1661.00,1696.91,500.23,475.60,23.46,0000 0000 0000 0000 000000
2014-08-20 07:00:43,1.32,10.70,1.00,29.50,33.81,35.99,9.35,57.60,994.16,2006.08,961.51,1657.43,1693.09,500.21,475.61,23.50,0000 0000 0000 0000 000000
2014-08-20 07:05:44,1.34,10.76,1.00,29.50,33.82,36.01,9.33,57.93,994.16,2006.03,955.55,1653.81,1689.29,500.24,475.55,23.54,0000 0000 0000 0000 000000
2014-08-20 07:10:45,1.38,10.82,1.00,29.51,33.85,36.02,9.27,57.93,994.15,2006.01,949.45,1650.22,1685.51,499.97,475.28,23.59,0000 0000 0000 0000 000000
2014-08-20 07:15:47,1.37,10.87,1.00,29.52,33.85,36.04,9.29,57.99,994.15,2006.00,943.39,1646.62,1681.69,499.38,474.62,23.63,0000 0000 0000 0000 000000
2014-08-20 07:20:48,1.37,10.93,1.00,29.53,33.87,36.05,9.33,58.39,994.15,2006.00,937.44,1643.07,1677.95,499.96,475.20,23.67,0000 0000 0000 0000 000000
2014-08-20 07:25:49,1.38,10.99,1.00,29.56,33.89,36.07,9.33,58.59,994.15,2006.00,931.43,1639.58,1674.27,499.85,475.06,23.71,0000 0000 0000 0000 000000
2014-08-20 07:30:50,1.40,11.05,1.00,29.57,33.90,36.09,9.37,58.88,994.13,2006.00,925.28,1636.12,1670.64,500.23,475.29,23.75,0000 0000 0000 0000 000000
2014-08-20 07:35:52,1.39,11.11,1.00,29.58,33.91,36.10,9.31,58.96,994.10,2005.96,919.25,1632.65,1666.91,499.64,474.69,23.80,0000 0000 0000 0000 000000
2014-08-20 07:40:53,1.38,11.16,1.00,29.61,33.92,36.09,9.35,59.17,994.13,2005.88,913.32,1629.09,1663.22,500.37,475.36,23.84,0000 0000 0000 0000 000000
2014-08-20 07:45:54,1.36,11.22,1.00,29.59,33.94,36.12,9.46,59.32,994.15,2005.79,907.49,1625.61,1659.57,500.39,475.53,23.88,0000 0000 0000 0000 000000
2014-08-20 07:50:55,1.32,11.28,1.00,29.63,33.95,36.12,9.35,59.32,994.15,2005.57,901.79,1622.06,1655.87,499.98,475.03,23.92,0000 0000 0000 0000 000000
2014-08-20 07:55:56,1.32,11.33,1.00,29.65,33.97,36.14,9.39,59.46,994.15,2005.41,896.26,1618.62,1652.21,499.70,474.84,23.96,0000 0000 0000 0000 000000
2014-08-20 08:00:57,1.34,11.39,1.00,29.66,33.98,36.16,9.35,59.57,994.15,2005.27,890.85,1615.17,1648.60,500.27,475.43,24.01,0000 0000 0000 0000 000000
2014-08-20 08:05:59,1.35,11.45,1.00,29.65,34.00,36.18,9.38,59.95,994.16,2005.16,885.30,1611.79,1645.02,499.99,475.04,24.05,0000 0000 0000 0000 000000
2014-08-20 08:11:00,1.35,11.50,1.00,29.67,34.01,36.19,9.41,60.31,994.16,2005.06,879.76,1608.52,1641.56,500.01,475.07,24.09,0000 0000 0000 0000 000000
2014-08-20 08:16:01,1.33,11.56,1.00,29.67,34.02,36.20,9.34,60.48,994.16,2005.01,874.28,1605.23,1638.10,499.71,474.77,24.13,0000 0000 0000 0000 000000
2014-08-20 08:21:02,1.36,11.62,1.00,29.70,34.04,36.22,9.30,60.56,994.13,2005.00,868.90,1601.92,1634.63,499.83,474.77,24.17,0000 0000 0000 0000 000000
2014-08-20 08:26:04,1.32,11.67,1.00,29.70,34.05,36.23,9.41,60.80,994.14,2005.00,863.63,1598.78,1631.17,500.36,475.30,24.21,0000 0000 0000 0000 000000
2014-08-20 08:31:05,1.34,11.73,1.00,29.73,34.07,36.24,9.28,61.05,994.15,2005.00,858.39,1595.64,1627.71,499.86,474.78,24.26,0000 0000 0000 0000 000000
2014-08-20 08:36:06,1.35,11.79,1.00,29.75,34.07,36.25,9.34,61.63,994.15,2005.00,853.24,1592.22,1624.12,499.85,474.73,24.30,0000 0000 0000 0000 000000
2014-08-20 08:41:07,1.36,11.84,1.00,29.75,34.10,36.26,9.35,61.83,994.15,2005.00,848.23,1588.82,1620.55,499.90,474.80,24.34,0000 0000 0000 0000 000000
2014-08-20 08:46:09,1.35,11.90,1.00,29.75,34.10,36.29,9.42,62.02,994.15,2004.96,843.29,1585.30,1616.89,500.13,475.07,24.38,0000 0000 0000 0000 000000
2014-08-20 08:51:10,1.36,11.96,1.00,29.76,34.12,36.29,9.44,62.35,994.15,2004.93,838.40,1581.87,1613.32,500.07,474.94,24.42,0000 0000 0000 0000 000000
2014-08-20 08:56:12,1.32,12.02,1.00,29.77,34.13,36.32,9.41,62.48,994.16,2004.87,833.60,1578.44,1609.79,499.92,474.72,24.47,0000 0000 0000 0000 000000
2014-08-20 09:01:13,1.28,12.07,1.00,29.79,34.15,36.34,9.35,62.35,994.16,2004.75,828.98,1575.05,1606.19,499.92,474.75,24.51,0000 0000 0000 0000 000000
2014-08-20 09:06:14,1.33,12.12,1.00,29.80,34.16,36.35,9.46,62.47,994.14,2004.62,824.22,1571.69,1602.73,500.25,475.15,24.55,0000 0000 0000 0000 000000
2014-08-20 09:11:15,1.27,12.18,1.00,29.80,34.17,36.35,9.37,62.62,993.96,2004.33,819.47,1568.34,1599.25,500.07,474.82,24.59,0000 0000 0000 0000 000000
2014-08-20 09:16:17,1.36,12.23,1.00,29.80,34.19,36.37,9.38,62.77,993.71,2004.07,814.60,1564.89,1595.82,500.37,474.82,24.63,0000 0000 0000 0000 000000
2014-08-20 09:21:18,1.35,12.29,1.00,29.80,34.20,36.37,9.38,62.95,993.74,2004.05,809.77,1561.57,1592.36,500.11,474.72,24.68,0000 0000 0000 0000 000000
2014-08-20 09:26:19,1.37,12.35,1.00,29.80,34.20,36.40,9.47,63.09,993.92,2004.01,804.97,1558.29,1588.90,500.17,474.81,24.72,0000 0000 0000 0000 000000
2014-08-20 09:31:20,1.38,12.41,1.00,29.81,34.22,36.40,9.54,63.24,994.05,2004.00,800.19,1555.02,1585.49,500.66,475.42,24.76,0000 0000 0000 0000 000000
2014-08-20 09:36:22,1.39,12.47,1.00,29.83,34.23,36.42,9.33,63.29,994.09,2004.00,795.41,1551.74,1582.00,499.92,474.71,24.80,0000 0000 0000 0000 000000
2014-08-20 09:41:23,1.41,12.52,1.00,29.82,34.25,36.42,9.38,63.46,993.94,2004.00,790.53,1548.47,1578.69,500.01,474.68,24.84,0000 0000 0000 0000 000000
2014-08-20 09:46:24,1.41,12.58,1.00,29.83,34.25,36.43,9.40,63.66,993.86,2004.00,785.62,1545.22,1575.26,500.03,474.66,24.89,0000 0000 0000 0000 000000
2014-08-20 09:51:25,1.47,12.64,1.00,29.86,34.27,36.45,9.35,63.92,993.78,2004.00,780.55,1541.94,1571.88,499.99,474.47,24.93,0000 0000 0000 0000 000000
2014-08-20 09:56:26,1.51,12.71,1.00,29.87,34.27,36.46,9.54,64.14,993.72,2003.98,775.38,1538.63,1568.41,500.10,474.63,24.97,0000 0000 0000 0000 000000
2014-08-20 10:01:28,1.47,12.77,1.00,29.89,34.29,36.47,9.41,64.14,993.78,2003.94,770.27,1535.48,1564.95,500.24,474.76,25.01,0000 0000 0000 0000 000000
2014-08-20 10:06:29,1.50,12.83,1.00,29.90,34.30,36.47,9.38,64.33,993.95,2003.94,765.18,1532.37,1561.53,499.98,474.49,25.05,0000 0000 0000 0000 000000
2014-08-20 10:11:30,1.51,12.90,1.00,29.91,34.31,36.48,9.42,64.52,994.01,2003.87,760.01,1529.07,1558.04,500.27,474.63,25.10,0000 0000 0000 0000 000000
2014-08-20 10:16:31,1.53,12.96,1.00,29.90,34.32,36.50,9.38,64.78,994.05,2003.45,754.60,1525.65,1554.47,500.14,474.75,25.14,0000 0000 0000 0000 000000
2014-08-20 10:21:32,1.58,13.03,1.00,29.89,34.32,36.52,9.37,64.99,993.96,2003.43,749.25,1522.35,1551.07,500.05,474.62,25.18,0000 0000 0000 0000 000000
2014-08-20 10:26:33,1.58,13.09,1.10,29.91,34.34,36.52,9.38,65.13,993.79,2003.38,743.91,1519.11,1547.60,500.04,474.50,25.22,0000 0000 0000 0000 000000
2014-08-20 10:31:35,1.54,13.16,2.00,29.93,34.35,36.52,9.39,65.30,993.72,2003.28,738.60,1515.83,1544.20,500.12,474.47,25.26,0000 0000 0000 0000 000000
2014-08-20 10:36:36,1.61,13.22,2.00,29.92,34.36,36.54,9.38,65.53,993.92,2003.14,733.30,1512.55,1540.82,499.71,474.28,25.31,0000 0000 0000 0000 000000
2014-08-20 10:41:37,1.61,13.29,2.00,29.92,34.37,36.55,9.42,65.74,994.07,2003.01,728.00,1509.31,1537.38,500.19,474.84,25.35,0000 0000 0000 0000 000000
2014-08-20 10:46:38,1.59,13.36,2.00,29.93,34.37,36.56,9.38,65.96,994.10,2003.00,722.77,1506.09,1534.13,499.74,474.35,25.39,0000 0000 0000 0000 000000
2014-08-20 10:51:40,1.62,13.43,2.00,29.95,34.39,36.57,9.44,66.16,994.07,2003.00,717.52,1502.87,1530.77,499.91,474.47,25.43,0000 0000 0000 0000 000000
2014-08-20 10:56:41,1.67,13.50,2.00,29.97,34.40,36.59,9.49,66.42,994.03,2003.00,712.20,1499.69,1527.43,500.13,474.38,25.47,0000 0000 0000 0000 000000
2014-08-20 11:01:42,1.64,13.57,2.00,29.97,34.40,36.59,9.49,66.62,993.98,2003.00,706.90,1496.54,1524.09,500.13,474.67,25.51,0000 0000 0000 0000 000000
2014-08-20 11:06:44,1.62,13.63,2.00,30.00,34.42,36.59,9.45,67.13,994.11,2002.99,701.74,1493.47,1520.87,499.79,474.35,25.56,0000 0000 0000 0000 000000
2014-08-20 11:11:45,1.63,13.70,2.00,30.01,34.42,36.61,9.42,67.26,994.12,2002.93,696.54,1490.39,1517.55,499.76,474.17,25.60,0000 0000 0000 0000 000000
2014-08-20 11:16:46,1.60,13.77,2.00,30.00,34.43,36.62,9.38,67.32,994.10,2002.75,691.34,1487.27,1514.26,499.67,474.07,25.64,0000 0000 0000 0000 000000
2014-08-20 11:21:47,1.62,13.84,2.00,29.99,34.45,36.63,9.43,67.63,994.12,2002.61,686.20,1484.24,1511.09,500.23,474.69,25.68,0000 0000 0000 0000 000000
2014-08-20 11:26:49,1.60,7.87,2.00,30.01,34.45,36.64,8.22,48.64,994.14,2004.83,1863.39,2259.52,2398.18,444.36,421.76,0.01,0000 0000 0000 0000 000002
2014-08-20 11:31:51,1.60,0.01,2.00,30.01,34.46,36.61,9.17,39.98,994.05,2008.00,3377.23,3259.27,3538.98,500.24,474.54,0.03,0000 0000 0000 0000 000000
2014-08-20 11:36:51,1.71,0.09,2.00,30.02,34.47,36.63,9.15,39.98,993.93,2008.00,3335.71,3234.26,3504.78,499.99,474.36,0.07,0000 0000 0000 0000 000000
2014-08-20 11:41:53,1.84,0.18,2.00,30.04,34.47,36.64,9.15,40.07,994.07,2007.99,3296.03,3209.81,3471.88,500.09,474.49,0.11,0000 0000 0000 0000 000000
2014-08-20 11:46:54,1.98,0.26,2.00,30.06,34.48,36.65,9.16,40.02,994.05,2007.95,3257.67,3185.90,3440.29,499.97,474.32,0.15,0000 0000 0000 0000 000000
2014-08-20 11:51:55,2.06,0.35,2.00,30.04,34.49,36.66,9.12,40.01,994.07,2007.92,3220.46,3162.51,3409.63,500.05,474.56,0.19,0000 0000 0000 0000 000000
2014-08-20 11:56:56,2.02,0.43,2.00,30.04,34.50,36.67,9.14,40.18,994.10,2007.52,3184.02,3139.38,3379.90,500.08,474.50,0.23,0000 0000 0000 0000 000000
2014-08-20 12:01:58,1.98,0.51,2.00,30.05,34.50,36.68,9.15,40.33,993.95,2007.13,3148.21,3116.60,3350.55,500.11,474.50,0.28,0000 0000 0000 0000 000000
2014-08-20 12:06:59,1.98,0.60,2.00,30.05,34.50,36.69,9.32,40.33,993.87,2007.01,3113.11,3093.87,3321.77,500.83,475.11,0.32,0000 0000 0000 0000 000000
2014-08-20 12:12:00,1.98,0.68,2.00,30.03,34.51,36.70,9.14,40.31,993.76,2007.00,3078.48,3071.51,3293.51,500.01,474.27,0.36,0000 0000 0000 0000 000000
2014-08-20 12:17:01,1.97,0.76,2.00,30.03,34.52,36.69,9.20,40.27,993.76,2007.00,3044.67,3049.45,3265.86,500.07,474.23,0.40,0000 0000 0000 0000 000000
2014-08-20 12:22:02,1.97,0.85,2.00,30.03,34.52,36.70,9.09,40.23,993.90,2006.98,3011.29,3027.48,3238.64,499.82,474.22,0.44,0000 0000 0000 0000 000000
2014-08-20 12:27:03,1.93,0.93,2.00,30.03,34.53,36.70,9.17,40.37,994.10,2006.94,2978.85,3006.21,3212.14,499.91,474.34,0.49,0000 0000 0000 0000 000000
2014-08-20 12:32:05,1.92,1.01,2.00,30.01,34.53,36.71,9.20,40.43,994.15,2006.92,2947.06,2985.24,3186.24,500.48,474.95,0.53,0000 0000 0000 0000 000000
2014-08-20 12:37:06,1.90,1.09,2.00,30.03,34.54,36.71,9.24,40.50,994.13,2006.70,2915.62,2964.28,3160.61,500.52,474.85,0.57,0000 0000 0000 0000 000000
2014-08-20 12:42:07,1.87,1.17,2.00,30.03,34.55,36.73,9.22,40.53,994.01,2006.26,2884.86,2943.74,3135.62,500.25,474.63,0.61,0000 0000 0000 0000 000000
2014-08-20 12:47:08,1.88,1.25,2.00,30.03,34.55,36.72,9.02,40.68,993.76,2006.10,2855.09,2923.76,3111.37,499.36,473.69,0.65,0000 0000 0000 0000 000000
2014-08-20 12:52:09,1.89,1.32,2.00,30.03,34.55,36.73,9.13,40.88,993.71,2006.03,2825.68,2903.96,3087.47,499.82,474.10,0.69,0000 0000 0000 0000 000000
2014-08-20 12:57:10,1.88,1.40,2.00,30.04,34.55,36.73,9.12,40.72,993.68,2006.03,2796.76,2884.43,3064.02,499.85,473.96,0.74,0000 0000 0000 0000 000000
2014-08-20 13:02:12,1.91,1.48,2.00,30.03,34.57,36.74,9.09,40.67,993.68,2006.00,2767.85,2865.02,3040.58,499.62,473.87,0.78,0000 0000 0000 0000 000000
2014-08-20 13:07:13,1.93,1.56,2.00,30.04,34.57,36.75,9.20,41.02,993.67,2006.00,2739.21,2845.55,3017.25,500.27,474.48,0.82,0000 0000 0000 0000 000000